Location: Days
(41.3591°N, 106.7339°W)
Time: 08:53:40
(UTC+00:00)

DMSP 5D-2 F13 DEB - Visible Passes

Search period start: 27 November 2022 00:00
Search period end: 07 December 2022 00:00
Orbit: 677 x 893 km, 98.6° (Epoch: 26 November)

Date Brightness Start Highest point End Pass type
(mag) Time Alt. Az. Time Alt. Az. Time Alt. Az.
27 Nov ? 01:05:23 10° SSE 01:10:37 57° ENE 01:16:09 10° N visible
27 Nov ? 02:46:37 10° SW 02:50:24 19° W 02:54:18 10° NW visible
27 Nov ? 13:18:28 10° NE 13:22:46 22° E 13:26:55 10° SE visible
28 Nov ? 00:35:13 10° SE 00:39:56 32° ENE 00:44:52 10° N visible
28 Nov ? 02:14:15 10° SSW 02:19:09 36° W 02:24:19 10° NNW visible
28 Nov ? 12:50:02 10° ENE 12:51:25 11° E 12:52:47 10° E visible
29 Nov ? 00:05:46 10° ESE 00:09:24 18° ENE 00:13:07 10° NNE visible
29 Nov ? 01:42:44 10° S 01:48:06 69° WSW 01:53:46 10° NNW visible
30 Nov ? 01:11:50 10° SSE 01:17:13 66° ENE 01:22:51 10° N visible
30 Nov ? 02:53:35 10° SW 02:57:04 17° W 03:00:40 10° NW visible
30 Nov ? 13:24:54 10° NE 13:29:27 24° E 13:33:47 10° SSE visible
01 Dec ? 00:41:31 10° SE 00:46:29 36° ENE 00:51:38 10° N visible
01 Dec ? 02:20:59 10° SSW 02:25:48 32° W 02:30:52 10° NNW visible
01 Dec ? 12:55:49 10° ENE 12:58:06 12° E 13:00:21 10° ESE visible
02 Dec ? 00:11:54 10° ESE 00:15:54 21° ENE 00:20:00 10° NNE visible
02 Dec ? 01:49:19 10° S 01:54:42 60° W 02:00:22 10° NNW visible
03 Dec ? 01:18:18 10° SSE 01:23:47 75° ENE 01:29:31 10° N visible
03 Dec ? 03:00:39 10° WSW 03:03:44 15° W 03:06:55 10° NW visible
03 Dec ? 13:31:22 10° NE 13:36:04 27° E 13:40:34 10° SSE visible
04 Dec ? 00:47:51 10° SE 00:53:01 41° ENE 00:58:21 10° N visible
04 Dec ? 02:27:44 10° SSW 02:32:26 28° W 02:37:20 10° NW visible
04 Dec ? 13:01:53 10° ENE 13:04:45 14° E 13:07:32 10° ESE visible
05 Dec ? 00:18:03 10° ESE 00:22:23 24° ENE 00:26:49 10° NNE visible
05 Dec ? 01:55:55 10° S 02:01:18 53° W 02:06:56 10° NNW visible
06 Dec ? 01:24:46 10° SSE 01:30:20 85° ENE 01:36:07 10° NNW visible
06 Dec ? 03:07:49 10° WSW 03:10:23 13° W 03:13:00 10° WNW visible
06 Dec ? 13:37:49 10° NNE 13:42:40 31° E 13:47:15 10° SSE visible
